Torna al catalogo

DELTA 1 DEB

AttivoSSO
NORAD 2775·DEBRIS·🇺🇸 United States

Lanciato Oct 2, 1966 da Vandenberg Space Force Base

Loading…

Prossimi Passaggi (prossime 24 ore)

TLE

AggiornatoSource: Space-Track

Epoca: Sep 14, 2026, 11:48 UTC

1 02775U 66087D   26257.49224736 -.00000042  00000-0  58021-5 0  9995
2 02775 100.9279 257.5097 0124490 299.8489 213.7548 12.71701403781681

Traccia DELTA 1 DEB in tempo reale con AllMySat

Download on the App Store